CW4114 Weather Reports


time (UTC)temp
C
wind
direction
speed
KPH
gust
KPH
rain 1hr
cm
rain 24hr
cm
rain mn
cm
humidity
%
barometer
mb
20260509024244 7 199 6.4 14.5 0.00 0.00 0.00 66 1003.7
20260509023744 7 171 3.2 9.7 0.00 0.00 0.00 67 1003.8
20260509023241 7 192 4.8 11.3 0.00 0.00 0.00 68 1003.8
20260509022740 7 192 8.0 11.3 0.00 0.00 0.00 68 1003.9
20260509021739 7 166 6.4 9.7 0.00 0.00 0.00 70 1003.9
20260509021239 7 200 3.2 8.0 0.00 0.00 0.00 69 1003.9
20260509021008 7 182 3.2 8.0 0.00 0.00 0.00 69 1003.9
20260509020241 7 186 3.2 6.4 0.00 0.00 0.00 69 1003.9
20260509015725 7 179 3.2 6.4 0.00 0.00 0.00 68 1003.9
20260509015224 7 162 3.2 6.4 0.00 0.00 0.00 67 1003.9
20260509014719 7 151 3.2 6.4 0.00 0.00 0.00 67 1003.8
20260509014219 7 166 3.2 8.0 0.00 0.00 0.00 67 1003.9
20260509013718 7 155 4.8 8.0 0.00 0.00 0.00 67 1003.9
20260509013215 7 168 4.8 6.4 0.00 0.00 0.00 67 1003.9
20260509012714 7 161 3.2 6.4 0.00 0.00 0.00 66 1003.9
20260509012440 7 155 3.2 6.4 0.00 0.00 0.00 66 1003.8
20260509011711 7 188 1.6 6.4 0.00 0.00 0.00 66 1003.8
20260509011212 7 157 3.2 6.4 0.00 0.00 0.00 66 1003.8
20260509010710 7 158 3.2 4.8 0.00 0.00 0.00 65 1003.7
20260509010214 7 151 3.2 8.0 0.00 0.00 0.00 65 1003.7
20260509005757 7 144 3.2 6.4 0.00 0.00 0.00 64 1003.7
20260509005031 8 137 1.6 6.4 0.00 0.00 0.00 64 1003.5
20260509004532 8 144 3.2 8.0 0.00 0.00 0.00 64 1003.7
20260509004031 8 134 1.6 8.0 0.00 0.00 0.00 65 1003.7
20260509003530 8 141 3.2 6.4 0.00 0.00 0.00 66 1003.5
20260509003027 8 141 1.6 8.0 0.00 0.00 0.00 68 1003.5
20260509002526 8 121 1.6 8.0 0.00 0.00 0.00 71 1003.5
20260509002027 7 127 3.2 6.4 0.00 0.00 0.00 75 1003.5
20260509001527 7 131 3.2 8.0 0.00 0.00 0.00 81 1003.5
20260509001026 6 137 4.8 8.0 0.00 0.00 0.00 86 1003.5
20260509000526 6 154 3.2 6.4 0.00 0.00 0.00 87 1003.7
20260509000020 6 96 0.0 4.8 0.00 0.00 0.00 87 1003.7
20260508235736 6 85 3.2 4.8 0.00 0.00 0.00 87 1003.7
20260508235008 6 85 1.6 4.8 0.00 0.00 0.00 87 1003.7
20260508234231 6 99 3.2 4.8 0.00 0.00 0.00 86 1003.9
20260508233503 6 75 1.6 4.8 0.00 0.00 0.00 86 1004.0
20260508233004 6 86 1.6 6.4 0.00 0.00 0.00 85 1003.9
20260508232503 6 87 3.2 6.4 0.00 0.00 0.00 85 1004.0
20260508232004 6 72 3.2 6.4 0.00 0.00 0.00 85 1004.0
20260508231504 6 80 3.2 9.7 0.00 0.00 0.00 84 1004.0
20260508231002 6 102 3.2 9.7 0.00 0.00 0.00 84 1004.0
20260508230504 6 110 4.8 11.3 0.00 0.00 0.00 83 1004.0
20260508230004 6 95 6.4 11.3 0.00 0.00 0.00 82 1004.0
20260508225503 6 86 6.4 9.7 0.00 0.00 0.00 83 1004.1
20260508225004 7 62 6.4 9.7 0.00 0.00 0.00 82 1004.1
20260508224503 7 75 6.4 9.7 0.00 0.00 0.00 81 1004.2
20260508224006 7 104 6.4 11.3 0.00 0.00 0.00 81 1004.2
20260508223503 7 76 8.0 11.3 0.00 0.00 0.00 81 1004.2
20260508222958 7 89 3.2 14.5 0.00 0.00 0.00 81 1004.2
20260508222724 7 86 6.4 16.1 0.00 0.00 0.00 80 1004.2
20260508221958 7 126 6.4 16.1 0.00 0.00 0.00 79 1004.2
20260508221454 7 78 8.0 16.1 0.00 0.00 0.00 78 1004.2
20260508220954 7 110 4.8 11.3 0.00 0.00 0.00 78 1004.4
20260508220454 7 82 6.4 11.3 0.00 0.00 0.00 77 1004.3
20260508215955 8 79 9.7 11.3 0.00 0.00 0.00 77 1004.3
20260508215454 8 83 6.4 14.5 0.00 0.00 0.00 76 1004.4
20260508214954 8 92 9.7 14.5 0.00 0.00 0.00 78 1004.4
20260508214451 8 86 9.7 14.5 0.00 0.00 0.00 77 1004.4
20260508213951 8 75 8.0 17.7 0.00 0.00 0.00 78 1004.5
20260508213718 7 66 6.4 20.9 0.00 0.00 0.00 77 1004.4
20260508213220 7 103 9.7 20.9 0.00 0.00 0.00 76 1004.4
20260508212450 7 93 11.3 17.7 0.00 0.00 0.00 75 1004.4
20260508211950 7 96 6.4 16.1 0.00 0.00 0.00 75 1004.5
20260508211453 8 110 9.7 16.1 0.00 0.00 0.00 75 1004.5
20260508210950 8 54 8.0 14.5 0.00 0.00 0.00 75 1004.5
20260508210717 8 71 8.0 14.5 0.00 0.00 0.00 76 1004.6
20260508205950 7 75 6.4 14.5 0.00 0.00 0.00 75 1004.6
20260508205449 7 80 8.0 16.1 0.00 0.00 0.00 75 1004.6
20260508204950 7 75 8.0 17.7 0.00 0.00 0.00 74 1004.7
20260508204450 8 59 9.7 17.7 0.00 0.00 0.00 73 1004.8
20260508203950 8 72 4.8 14.5 0.00 0.00 0.00 75 1004.7
20260508202948 8 76 9.7 17.7 0.00 0.00 0.00 72 1004.6
20260508202448 8 92 8.0 17.7 0.00 0.00 0.00 72 1004.6
20260508201949 8 79 9.7 17.7 0.00 0.00 0.00 73 1004.5
20260508201451 8 71 9.7 17.7 0.00 0.00 0.00 73 1004.5
20260508200949 8 45 9.7 17.7 0.00 0.00 0.00 76 1004.7
20260508200450 8 61 8.0 17.7 0.00 0.00 0.00 73 1004.6
20260508195950 8 93 9.7 19.3 0.00 0.00 0.00 72 1004.7
20260508195448 8 93 6.4 20.9 0.00 0.00 0.00 71 1004.9
20260508194948 8 102 14.5 20.9 0.00 0.00 0.00 70 1004.7
20260508194447 8 103 11.3 22.5 0.00 0.00 0.00 71 1004.8
20260508193948 8 75 12.9 22.5 0.00 0.00 0.00 71 1005.0
20260508193447 8 100 12.9 19.3 0.00 0.00 0.00 70 1004.9
20260508192947 8 87 9.7 20.9 0.00 0.00 0.00 72 1005.1
20260508192447 8 117 6.4 20.9 0.00 0.00 0.00 71 1005.0
20260508191946 8 92 11.3 17.7 0.00 0.00 0.00 72 1005.1
20260508191446 8 102 8.0 17.7 0.00 0.00 0.00 73 1005.2
20260508190947 8 65 9.7 17.7 0.00 0.00 0.00 74 1005.3
20260508190447 8 55 8.0 19.3 0.00 0.00 0.00 74 1005.3
20260508185947 8 145 9.7 19.3 0.00 0.00 0.00 73 1005.3
20260508185447 8 103 9.7 17.7 0.00 0.00 0.00 73 1005.3
20260508184946 8 92 6.4 17.7 0.00 0.00 0.00 73 1005.5
20260508184445 8 92 9.7 17.7 0.00 0.00 0.00 74 1005.4
20260508183946 8 75 8.0 17.7 0.00 0.00 0.00 74 1005.5
20260508183458 8 78 9.7 17.7 0.00 0.00 0.00 73 1005.6
20260508182945 8 87 11.3 17.7 0.00 0.00 0.00 75 1005.7
20260508182445 8 89 9.7 19.3 0.00 0.00 0.00 76 1005.7
20260508181945 8 114 9.7 19.3 0.00 0.00 0.00 75 1005.7
20260508181444 7 69 9.7 19.3 0.00 0.00 0.00 75 1005.8
20260508180944 7 75 11.3 19.3 0.00 0.00 0.00 75 1005.8
20260508180447 7 86 9.7 19.3 0.00 0.00 0.00 74 1005.9
20260508175944 7 116 9.7 20.9 0.00 0.00 0.00 74 1005.9
20260508175444 7 107 9.7 22.5 0.00 0.00 0.00 74 1006.1
20260508174945 7 107 12.9 22.5 0.00 0.00 0.00 74 1006.1
20260508174444 7 92 8.0 17.7 0.00 0.00 0.00 75 1006.2
20260508173945 7 89 8.0 19.3 0.00 0.00 0.00 76 1006.3
20260508173443 7 85 9.7 19.3 0.00 0.00 0.00 73 1006.4
20260508172943 7 87 12.9 20.9 0.00 0.00 0.00 72 1006.4
20260508172443 7 99 11.3 20.9 0.00 0.00 0.00 73 1006.4
20260508171943 7 86 9.7 19.3 0.00 0.00 0.00 74 1006.6
20260508171443 7 114 11.3 17.7 0.00 0.00 0.00 73 1006.5
20260508170943 7 79 9.7 17.7 0.00 0.00 0.00 76 1006.5
20260508170442 6 66 9.7 17.7 0.00 0.00 0.00 75 1006.5
20260508170002 6 110 11.3 17.7 0.00 0.00 0.00 74 1006.6
20260508165457 7 123 9.7 17.7 0.00 0.00 0.00 75 1006.6
20260508165207 6 68 4.8 14.5 0.00 0.00 0.00 76 1006.7
20260508164441 6 106 8.0 14.5 0.00 0.00 0.00 76 1006.7
20260508163940 6 96 8.0 14.5 0.00 0.00 0.00 76 1006.8
20260508163437 6 99 3.2 16.1 0.00 0.00 0.00 75 1006.7
20260508162938 6 100 8.0 16.1 0.00 0.00 0.00 74 1006.7
20260508162438 7 62 8.0 17.7 0.00 0.00 0.00 74 1006.8
20260508161938 7 97 9.7 17.7 0.00 0.00 0.00 74 1006.8
20260508161438 7 107 8.0 16.1 0.00 0.00 0.00 74 1006.7
20260508160951 7 79 9.7 16.1 0.00 0.00 0.00 72 1006.8
20260508155938 7 89 11.3 16.1 0.00 0.00 0.00 70 1006.8
20260508155437 7 34 6.4 11.3 0.00 0.00 0.00 70 1006.9
20260508155206 8 117 4.8 11.3 0.00 0.00 0.00 73 1007.0
20260508154534 7 76 6.4 14.5 0.00 0.00 0.00 72 1007.1
20260508154521 8 95 6.4 14.5 0.00 0.00 0.00 72 1007.0
20260508153610 7 93 4.8 9.7 0.00 0.00 0.00 73 1007.2
20260508153029 7 118 3.2 9.7 0.00 0.00 0.00 76 1007.2
20260508152435 7 76 6.4 11.3 0.00 0.00 0.00 74 1007.2
20260508151936 7 89 4.8 11.3 0.00 0.00 0.00 73 1007.3
20260508151436 7 73 6.4 9.7 0.00 0.00 0.00 75 1007.3
20260508150935 7 110 8.0 11.3 0.00 0.00 0.00 74 1007.3
20260508150435 7 48 6.4 11.3 0.00 0.00 0.00 73 1007.3
20260508145934 7 54 6.4 11.3 0.00 0.00 0.00 73 1007.3
20260508145700 7 56 3.2 11.3 0.00 0.00 0.00 73 1007.4
20260508144935 7 68 6.4 11.3 0.00 0.00 0.00 72 1007.3
20260508144706 7 62 8.0 9.7 0.00 0.00 0.00 71 1007.3
20260508143932 7 54 4.8 11.3 0.00 0.00 0.00 71 1007.4
20260508143432 7 51 6.4 11.3 0.00 0.00 0.00 71 1007.4
20260508142933 7 86 8.0 11.3 0.00 0.00 0.00 71 1007.3
20260508142431 7 76 9.7 11.3 0.00 0.00 0.00 70 1007.4
20260508141933 7 90 6.4 11.3 0.00 0.00 0.00 70 1007.5
20260508141431 7 76 8.0 11.3 0.00 0.00 0.00 68 1007.5
20260508140931 8 109 8.0 9.7 0.00 0.00 0.00 68 1007.5
20260508140656 8 65 3.2 11.3 0.00 0.00 0.00 67 1007.5
20260508135931 8 56 6.4 11.3 0.00 0.00 0.00 67 1007.5
20260508135430 8 45 6.4 11.3 0.00 0.00 0.00 66 1007.6
20260508134929 8 30 4.8 11.3 0.00 0.00 0.00 65 1007.6
20260508134429 8 281 3.2 11.3 0.00 0.00 0.00 65 1007.6
20260508133929 8 299 3.2 9.7 0.00 0.00 0.00 66 1007.7
20260508133700 8 307 3.2 17.7 0.00 0.00 0.00 67 1007.7
20260508132926 8 254 4.8 19.3 0.00 0.00 0.00 65 1007.7
20260508132427 8 259 3.2 20.9 0.00 0.00 0.00 65 1007.8
20260508131928 8 278 11.3 20.9 0.00 0.00 0.00 67 1007.8
20260508131425 8 283 8.0 19.3 0.00 0.00 0.00 67 1007.8
20260508130924 8 257 9.7 16.1 0.00 0.00 0.00 69 1007.8
20260508130424 7 271 3.2 8.0 0.00 0.00 0.00 69 1007.7
20260508125923 7 286 3.2 8.0 0.00 0.00 0.00 69 1007.8
20260508125422 6 250 1.6 9.7 0.00 0.00 0.00 72 1007.9
20260508124921 6 264 4.8 9.7 0.00 0.00 0.00 71 1007.9
20260508124421 6 258 4.8 9.7 0.00 0.00 0.00 72 1008.0
20260508123924 5 247 3.2 8.0 0.00 0.00 0.00 72 1008.1
20260508123422 5 238 4.8 9.7 0.00 0.00 0.00 72 1008.0
20260508122920 5 292 4.8 9.7 0.00 0.00 0.00 74 1008.1
20260508122420 4 264 4.8 8.0 0.00 0.00 0.00 74 1008.0
20260508121918 4 271 4.8 9.7 0.00 0.00 0.00 75 1008.0
20260508121417 4 251 3.2 9.7 0.00 0.00 0.00 74 1008.0
20260508120415 3 288 6.4 11.3 0.00 0.00 0.00 75 1008.1
20260508115914 3 278 3.2 6.4 0.00 0.00 0.00 75 1008.0
20260508115416 3 299 1.6 4.8 0.00 0.00 0.00 76 1008.0
20260508114915 3 285 1.6 4.8 0.00 0.00 0.00 76 1008.0
20260508114415 3 289 3.2 6.4 0.00 0.00 0.00 76 1008.0
20260508113913 3 278 3.2 9.7 0.00 0.00 0.00 76 1007.9
20260508113413 3 248 4.8 9.7 0.00 0.00 0.00 76 1007.9
20260508112911 3 279 6.4 8.0 0.00 0.00 0.00 77 1007.8
20260508112411 2 282 3.2 6.4 0.00 0.00 0.00 77 1007.7
20260508111909 2 282 3.2 9.7 0.00 0.00 0.00 77 1007.7
20260508111410 2 268 3.2 9.7 0.00 0.00 0.00 78 1007.7
20260508110909 2 274 6.4 9.7 0.00 0.00 0.00 79 1007.7
20260508110408 1 233 4.8 8.0 0.00 0.00 0.00 79 1007.6
20260508105902 1 248 4.8 8.0 0.00 0.00 0.00 79 1007.7
20260508105403 1 252 4.8 8.0 0.00 0.00 0.00 79 1007.6
20260508104902 1 264 4.8 9.7 0.00 0.00 0.00 78 1007.6
20260508104403 1 244 4.8 9.7 0.00 0.00 0.00 78 1007.6
20260508103902 1 250 6.4 8.0 0.00 0.00 0.00 78 1007.6
20260508103645 1 251 6.4 9.7 0.00 0.00 0.00 77 1007.6
20260508102902 1 268 6.4 9.7 0.00 0.00 0.00 77 1007.5
20260508102403 1 250 4.8 9.7 0.00 0.00 0.00 77 1007.5
20260508101904 1 240 6.4 8.0 0.00 0.00 0.00 76 1007.5
20260508101403 1 230 4.8 8.0 0.00 0.00 0.00 76 1007.4
20260508100903 1 247 3.2 8.0 0.00 0.00 0.00 76 1007.4
20260508100403 2 250 3.2 11.3 0.00 0.00 0.00 76 1007.4
20260508095901 2 250 6.4 11.3 0.00 0.00 0.00 76 1007.5
20260508095402 2 240 6.4 11.3 0.00 0.00 0.00 76 1007.4
20260508094902 1 267 8.0 11.3 0.00 0.00 0.00 77 1007.5
20260508094400 1 244 8.0 11.3 0.00 0.00 0.00 77 1007.4
20260508093900 1 257 6.4 11.3 0.00 0.00 0.00 77 1007.5
20260508093400 1 234 6.4 11.3 0.00 0.00 0.00 77 1007.5
20260508092900 1 240 6.4 11.3 0.00 0.00 0.00 77 1007.6
20260508092400 1 231 6.4 11.3 0.00 0.00 0.00 77 1007.5
20260508091900 1 220 6.4 11.3 0.00 0.00 0.00 77 1007.6
20260508091350 1 244 4.8 11.3 0.00 0.00 0.00 77 1007.6
20260508091118 1 237 6.4 9.7 0.00 0.00 0.00 77 1007.7
20260508090350 1 234 4.8 9.7 0.00 0.00 0.00 77 1007.7
20260508090106 1 230 4.8 11.3 0.00 0.00 0.00 78 1007.7
20260508085347 1 254 6.4 11.3 0.00 0.00 0.00 78 1007.8
20260508084847 1 226 6.4 11.3 0.00 0.00 0.00 78 1007.8
20260508084346 1 231 6.4 11.3 0.00 0.00 0.00 79 1007.8
20260508083844 1 237 6.4 11.3 0.00 0.00 0.00 79 1007.8
20260508083344 1 212 8.0 11.3 0.00 0.00 0.00 80 1007.8
20260508082846 1 217 6.4 14.5 0.00 0.00 0.00 80 1007.8
20260508082344 1 240 8.0 14.5 0.00 0.00 0.00 81 1007.9
20260508081844 1 237 6.4 11.3 0.00 0.00 0.00 82 1007.9
20260508081339 1 245 6.4 11.3 0.00 0.00 0.00 82 1007.9
20260508080839 1 231 4.8 9.7 0.00 0.00 0.00 83 1008.0
20260508080336 1 241 6.4 9.7 0.00 0.00 0.00 83 1007.9
20260508075839 1 231 6.4 9.7 0.00 0.00 0.00 84 1007.9
20260508075600 1 255 4.8 8.0 0.00 0.00 0.00 84 1008.0
20260508074835 1 231 4.8 8.0 0.00 0.00 0.00 84 1008.1
20260508074335 1 237 6.4 8.0 0.00 0.00 0.00 85 1008.1
20260508073836 1 258 4.8 9.7 0.00 0.00 0.00 85 1008.1
20260508073335 1 254 4.8 9.7 0.00 0.00 0.00 86 1008.2
20260508072835 1 251 4.8 8.0 0.00 0.00 0.00 86 1008.2
20260508072335 1 237 4.8 8.0 0.00 0.00 0.00 86 1008.2
20260508071835 1 231 4.8 8.0 0.00 0.00 0.00 86 1008.2
20260508071333 1 227 4.8 6.4 0.00 0.00 0.00 86 1008.2
20260508070332 1 217 3.2 6.4 0.00 0.00 0.00 86 1008.2
20260508065832 1 210 3.2 6.4 0.00 0.00 0.00 86 1008.2
20260508065331 1 220 3.2 4.8 0.00 0.00 0.00 85 1008.3
20260508064833 1 212 3.2 4.8 0.00 0.00 0.00 85 1008.3
20260508064600 1 220 3.2 4.8 0.00 0.00 0.00 85 1008.4
20260508063831 1 214 3.2 6.4 0.00 0.00 0.00 84 1008.5
20260508063330 1 223 3.2 6.4 0.00 0.00 0.00 84 1008.6
20260508062831 1 210 4.8 4.8 0.00 0.00 0.00 84 1008.5
20260508062331 1 217 3.2 6.4 0.00 0.00 0.00 84 1008.6
20260508061831 1 219 3.2 6.4 0.00 0.00 0.00 83 1008.7
20260508061331 1 220 4.8 6.4 0.00 0.00 0.00 83 1008.7
20260508060830 2 219 4.8 6.4 0.00 0.00 0.00 83 1008.7
20260508060331 2 220 3.2 4.8 0.00 0.00 0.00 83 1008.7
20260508055830 2 217 3.2 6.4 0.00 0.00 0.00 82 1008.8
20260508055329 2 216 3.2 6.4 0.00 0.00 0.00 82 1008.9
20260508055105 2 221 3.2 4.8 0.00 0.00 0.00 83 1009.0
20260508054330 2 214 3.2 6.4 0.00 0.00 0.00 83 1009.0
20260508054054 2 209 3.2 8.0 0.00 0.00 0.00 83 1009.0
20260508053328 2 221 4.8 8.0 0.00 0.00 0.00 83 1009.0
20260508052828 2 241 3.2 6.4 0.00 0.00 0.00 83 1009.0
20260508052328 2 226 4.8 6.4 0.00 0.00 0.00 82 1009.0
20260508051830 2 238 4.8 6.4 0.00 0.00 0.00 82 1009.0
20260508051325 2 226 3.2 6.4 0.00 0.00 0.00 81 1009.0
20260508050825 2 220 4.8 6.4 0.00 0.00 0.00 81 1009.1
20260508050326 2 244 3.2 4.8 0.00 0.00 0.00 80 1009.1
20260508050044 2 233 3.2 6.4 0.00 0.00 0.00 80 1009.2
20260508045322 2 240 3.2 6.4 0.00 0.00 0.00 79 1009.2
20260508045051 2 243 4.8 6.4 0.00 0.00 0.00 78 1009.2
20260508044319 3 237 3.2 6.4 0.00 0.00 0.00 77 1009.1
20260508044050 3 261 3.2 4.8 0.00 0.00 0.00 77 1009.1
20260508043317 3 241 1.6 4.8 0.00 0.00 0.00 76 1009.0
20260508042817 3 258 3.2 4.8 0.00 0.00 0.00 76 1009.1
20260508042314 3 275 0.0 9.7 0.00 0.00 0.00 75 1009.0
20260508041816 4 199 3.2 9.7 0.00 0.00 0.00 74 1009.0
20260508041312 4 175 4.8 9.7 0.00 0.00 0.00 74 1009.0
20260508040810 4 186 6.4 9.7 0.00 0.00 0.00 73 1009.0
20260508040311 4 200 4.8 9.7 0.00 0.00 0.00 72 1009.0
20260508035808 4 199 3.2 8.0 0.00 0.00 0.00 72 1009.0
20260508035535 4 193 3.2 8.0 0.00 0.00 0.00 72 1009.1
20260508034807 4 214 3.2 8.0 0.00 0.00 0.00 72 1009.0
20260508034309 4 216 4.8 8.0 0.00 0.00 0.00 73 1008.9
20260508033805 4 228 1.6 8.0 0.00 0.00 0.00 73 1008.9
20260508033306 4 145 1.6 8.0 0.00 0.00 0.00 74 1009.0
20260508032806 4 171 1.6 9.7 0.00 0.00 0.00 74 1008.9
20260508032306 4 186 3.2 9.7 0.00 0.00 0.00 76 1008.9
20260508031804 4 199 4.8 6.4 0.00 0.00 0.00 78 1008.9
20260508031552 4 199 3.2 6.4 0.00 0.00 0.00 78 1009.0
20260508030842 4 192 3.2 6.4 0.00 0.00 0.00 78 1009.1
20260508030334 4 175 3.2 6.4 0.00 0.00 0.00 77 1009.2
20260508025800 4 193 3.2 6.4 0.00 0.00 0.00 77 1009.4
20260508025525 4 188 3.2 4.8 0.00 0.00 0.00 77 1009.4
20260508024759 4 197 1.6 3.2 0.00 0.00 0.00 77 1009.4